Weather History for KDDH - January, 2014

Change the Weather History Date:

Monday, January 20, 2014

  Actual Average Record
Temperature  
Mean Temperature 23 °F 21 °F  
Max Temperature 34 °F 30 °F 27 °F (2015)
Min Temperature 12 °F 11 °F 14 °F (2015)
Degree Days  
Heating Degree Days 42 44  
Month to date heating degree days 817 876  
Since 1 July heating degree days 3480 3648  
Cooling Degree Days 0 0  
Month to date cooling degree days 0 0  
Year to date cooling degree days 0 0  
Moisture  
Dew Point 20 °F    
Average Humidity 68    
Maximum Humidity 85    
Minimum Humidity 51    
Precipitation  
Precipitation 0.01 in 0.08 in 0.00 in (2015)
Month to date precipitation 2.83 1.92  
Year to date precipitation 2.83 1.92  
Sea Level Pressure  
Sea Level Pressure 29.60 in    
Wind  
Wind Speed 6 mph (West)    
Max Wind Speed 17 mph    
Max Gust Speed 29 mph    
Visibility 7 miles    
Events Snow    
T = Trace of Precipitation, MM = Missing Value Source: NWS Daily Summary

Daily Weather History Graph

Daily Weather History Graph

Search for Another Location

Airport or City:

Trip Planner

Search our weather history database for the weather conditions in past years. The results will help you decide how hot, cold, wet, or windy it might be!

Date:

Astronomy

Jan. 20, 2014 Rise Set
Actual Time 7:18 AM EST 4:50 PM EST
Civil Twilight 6:47 AM EST 5:21 PM EST
Nautical Twilight 6:12 AM EST 5:55 PM EST
Astronomical Twilight 5:38 AM EST 6:29 PM EST
Moon 9:30 PM EST (1/20) 9:09 AM EST (1/20)
Length of Visible Light 10h 34m
Length of Day
9h 32m
Waning Gibbous, 83% of the Moon is Illuminated
Jan 20
Waning Gibbous
Jan 24
Last Quarter
Jan 30
New
Feb 6
First Quarter
Feb 14
Full

Hourly Weather History & Observations

Time (EST) Temp. Windchill Dew Point Humidity Pressure Visibility Wind Dir Wind Speed Gust Speed Precip Events Conditions
12:54 AM 30.9 °F 23.5 °F 19.0 °F 61% 29.53 in 10.0 mi WSW 8.1 mph - N/A   Overcast
1:54 AM 30.9 °F - 19.0 °F 61% 29.53 in 10.0 mi Calm Calm - N/A   Overcast
2:29 AM 30.2 °F 26.7 °F 19.4 °F 64% 29.50 in 10.0 mi WSW 3.5 mph - N/A   Overcast
2:54 AM 30.9 °F 27.5 °F 19.9 °F 64% 29.53 in 10.0 mi WNW 3.5 mph - N/A   Overcast
3:18 AM 30.2 °F - 19.4 °F 64% 29.50 in 10.0 mi Calm Calm - N/A   Overcast
3:54 AM 30.0 °F 25.2 °F 19.9 °F 66% 29.53 in 10.0 mi West 4.6 mph - N/A   Overcast
4:54 AM 30.0 °F - 21.0 °F 69% 29.53 in 10.0 mi Calm Calm - N/A   Overcast
5:54 AM 28.0 °F - 21.0 °F 75% 29.53 in 10.0 mi Calm Calm - N/A   Overcast
6:54 AM 30.9 °F 27.5 °F 21.0 °F 67% 29.53 in 10.0 mi SW 3.5 mph - N/A   Overcast
7:54 AM 30.9 °F 26.2 °F 21.0 °F 67% 29.54 in 10.0 mi SW 4.6 mph - N/A   Overcast
8:54 AM 32.0 °F 26.4 °F 21.0 °F 64% 29.55 in 10.0 mi Variable 5.8 mph - N/A   Overcast
9:54 AM 32.0 °F 24.2 °F 23.0 °F 69% 29.55 in 10.0 mi SW 9.2 mph 16.1 mph N/A   Overcast
10:54 AM 33.1 °F 26.1 °F 24.1 °F 70% 29.54 in 10.0 mi SW 8.1 mph - N/A   Overcast
11:16 AM 33.8 °F 27.0 °F 24.8 °F 70% 29.51 in 10.0 mi WSW 8.1 mph 16.1 mph N/A   Overcast
11:25 AM 33.8 °F 27.0 °F 24.8 °F 70% 29.51 in 10.0 mi SW 8.1 mph - N/A   Overcast
11:54 AM 34.0 °F 28.0 °F 25.0 °F 70% 29.52 in 10.0 mi SW 6.9 mph - N/A   Overcast
12:54 PM 34.0 °F 29.8 °F 25.0 °F 70% 29.51 in 9.0 mi SW 4.6 mph - 0.00 in   Overcast
1:12 PM 33.8 °F 28.6 °F 24.8 °F 70% 29.48 in 5.0 mi SW 5.8 mph - 0.00 in Snow Light Snow
1:40 PM 33.8 °F 28.6 °F 26.6 °F 75% 29.49 in 1.8 mi NW 5.8 mph - 0.00 in Snow Light Snow
1:54 PM 32.0 °F 26.4 °F 27.0 °F 82% 29.51 in 1.0 mi NW 5.8 mph - 0.00 in Snow Light Snow
2:03 PM 32.0 °F 25.6 °F 26.6 °F 80% 29.49 in 1.0 mi NW 6.9 mph - 0.00 in Snow Light Snow
2:47 PM 30.2 °F 24.3 °F 26.6 °F 86% 29.53 in 0.8 mi SW 5.8 mph - 0.00 in Snow Light Snow
2:54 PM 30.9 °F 26.2 °F 26.1 °F 82% 29.55 in 0.8 mi SW 4.6 mph - 0.00 in Snow Light Snow
3:07 PM 30.2 °F 23.4 °F 26.6 °F 86% 29.53 in 1.0 mi West 6.9 mph - 0.01 in Snow Light Snow
3:14 PM 30.2 °F 25.4 °F 26.6 °F 86% 29.54 in 1.0 mi WSW 4.6 mph - 0.01 in Snow Light Snow
3:26 PM 30.2 °F 26.7 °F 26.6 °F 86% 29.55 in 0.8 mi WSW 3.5 mph - 0.01 in Snow Light Snow
3:38 PM 30.2 °F 24.3 °F 26.6 °F 86% 29.56 in 1.2 mi West 5.8 mph - 0.01 in Snow Light Snow
3:51 PM 30.2 °F 24.3 °F 26.6 °F 86% 29.57 in 2.5 mi West 5.8 mph - 0.01 in Snow Light Snow
3:54 PM 30.9 °F 25.2 °F 26.1 °F 82% 29.60 in 3.0 mi Variable 5.8 mph - 0.01 in Snow Light Snow
4:40 PM 30.2 °F 22.6 °F 21.2 °F 69% 29.63 in 10.0 mi NW 8.1 mph 17.3 mph 0.00 in   Overcast
4:54 PM 28.0 °F 21.7 °F 21.0 °F 75% 29.66 in 10.0 mi Variable 5.8 mph - 0.00 in   Overcast
5:54 PM 24.1 °F 17.0 °F 17.1 °F 75% 29.74 in 10.0 mi NNW 5.8 mph - N/A   Overcast
6:54 PM 21.9 °F 13.4 °F 12.9 °F 68% 29.79 in 10.0 mi WNW 6.9 mph - N/A   Overcast
7:54 PM 19.9 °F - 5.0 °F 52% 29.83 in 10.0 mi North - - N/A   Overcast
8:54 PM 16.0 °F 1.1 °F 3.0 °F 57% 29.88 in 10.0 mi WNW 15.0 mph 23.0 mph N/A   Mostly Cloudy
9:54 PM 15.1 °F -0.1 °F -0.0 °F 51% 29.90 in 10.0 mi West 15.0 mph 20.7 mph N/A   Overcast
10:54 PM 15.1 °F 3.3 °F 1.0 °F 54% 29.93 in 10.0 mi West 9.2 mph 17.3 mph N/A   Overcast
11:54 PM 12.9 °F 1.6 °F -2.0 °F 51% 29.93 in 10.0 mi WNW 8.1 mph 16.1 mph N/A   Mostly Cloudy